FW5436 Weather Reports


Display with metric or nautical units.
time (UTC)temp
F
wind
direction
speed
MPH
gust
MPH
rain 1hr
in
rain 24hr
in
rain mn
in
humidity
%
barometer
mb
20260904190601 62 338 4.0 9.0 0.00 0.01 0.01 35 1013.2
20260904190050 62 68 3.0 9.0 0.00 0.01 0.01 36 1013.4
20260904185540 61 68 4.0 8.0 0.00 0.01 0.01 36 1013.2
20260904185030 61 0 4.0 9.0 0.00 0.01 0.01 38 1013.2
20260904184524 61 68 4.0 9.0 0.00 0.01 0.01 38 1013.2
20260904184010 61 68 5.0 8.0 0.00 0.01 0.01 36 1013.3
20260904183500 62 90 4.0 7.0 0.00 0.01 0.01 36 1013.2
20260904182950 62 90 2.0 9.0 0.00 0.01 0.01 36 1013.4
20260904182440 62 248 3.0 9.0 0.00 0.01 0.01 37 1013.3
20260904180909 61 68 5.0 9.0 0.00 0.01 0.01 38 1013.3
20260904180359 61 90 4.0 9.0 0.00 0.01 0.01 41 1013.4
20260904175848 62 68 2.0 6.0 0.00 0.01 0.01 40 1013.4
20260904175339 61 135 2.0 7.0 0.00 0.01 0.01 40 1013.5
20260904174828 61 248 3.0 9.0 0.00 0.01 0.01 41 1013.6
20260904174318 61 90 2.0 9.0 0.00 0.01 0.01 43 1013.5
20260904173808 61 23 1.0 7.0 0.00 0.01 0.01 41 1013.7
20260904173259 60 45 3.0 9.0 0.00 0.01 0.01 43 1013.8
20260904172748 60 270 2.0 9.0 0.00 0.01 0.01 46 1013.7
20260904172238 59 68 3.0 11.0 0.00 0.01 0.01 47 1013.9
20260904171729 59 90 3.0 11.0 0.00 0.01 0.01 46 1014.0
20260904171217 60 68 4.0 8.0 0.00 0.01 0.01 46 1014.0
20260904170157 59 68 3.0 8.0 0.00 0.01 0.01 46 1014.2
20260904165137 59 68 2.0 8.0 0.00 0.01 0.01 45 1014.2
20260904164125 59 23 2.0 7.0 0.00 0.01 0.01 49 1014.5
20260904163606 59 113 4.0 7.0 0.00 0.01 0.01 49 1014.6
20260904163056 58 248 2.0 8.0 0.00 0.01 0.01 50 1014.6
20260904162545 58 68 4.0 8.0 0.00 0.01 0.01 52 1014.6
20260904162036 58 45 5.0 8.0 0.00 0.01 0.01 52 1015.0
20260904161527 57 45 4.0 9.0 0.00 0.01 0.01 53 1014.7
20260904161016 57 90 3.0 9.0 0.00 0.01 0.01 56 1015.3
20260904160505 57 0 3.0 9.0 0.00 0.01 0.01 52 1015.4
20260904155956 56 68 3.0 9.0 0.00 0.01 0.01 54 1015.4
20260904155445 57 45 4.0 9.0 0.00 0.01 0.01 56 1015.4
20260904154936 57 68 3.0 7.0 0.00 0.01 0.01 52 1015.6
20260904153914 56 68 3.0 11.0 0.00 0.01 0.01 53 1015.5
20260904153405 56 90 2.0 9.0 0.00 0.01 0.01 56 1015.5
20260904152344 56 68 4.0 11.0 0.00 0.01 0.01 59 1015.5
20260904151834 56 90 2.0 8.0 0.00 0.01 0.01 56 1015.5
20260904151324 56 68 4.0 7.0 0.00 0.01 0.01 54 1015.5
20260904150814 56 23 2.0 6.0 0.00 0.01 0.01 59 1015.8
20260904150305 55 68 2.0 8.0 0.00 0.01 0.01 59 1015.9
20260904145754 54 315 2.0 8.0 0.00 0.01 0.01 61 1015.8
20260904145244 55 23 2.0 7.0 0.00 0.01 0.01 61 1015.9
20260904144734 55 270 2.0 6.0 0.00 0.01 0.01 61 1016.0
20260904144228 55 45 3.0 7.0 0.00 0.01 0.01 62 1016.0
20260904142652 53 45 2.0 8.0 0.00 0.01 0.01 66 1016.0
20260904142143 53 45 3.0 8.0 0.00 0.01 0.01 63 1016.1
20260904140613 53 90 2.0 6.0 0.00 0.01 0.01 68 1016.4
20260904134531 52 180 1.0 7.0 0.00 0.01 0.01 75 1016.3
20260904134021 51 45 2.0 7.0 0.00 0.01 0.01 76 1016.1
20260904133511 51 23 2.0 6.0 0.00 0.01 0.01 77 1016.3
20260904133002 51 23 1.0 6.0 0.00 0.01 0.01 77 1016.5
20260904132451 50 0 2.0 4.0 0.00 0.01 0.01 77 1016.3
20260904131941 50 45 2.0 9.0 0.00 0.01 0.01 79 1016.4
20260904130921 49 68 2.0 6.0 0.00 0.01 0.01 81 1016.2
20260904130410 49 45 2.0 4.0 0.00 0.01 0.01 83 1016.3
20260904125905 49 68 3.0 6.0 0.00 0.01 0.01 83 1016.1
20260904125350 48 23 1.0 6.0 0.00 0.01 0.01 85 1016.3
20260904124840 48 68 2.0 8.0 0.00 0.01 0.01 86 1016.1
20260904123820 47 68 2.0 7.0 0.00 0.01 0.01 87 1016.2
20260904123309 47 113 3.0 6.0 0.00 0.01 0.01 87 1016.0
20260904122249 46 45 2.0 4.0 0.00 0.01 0.01 90 1016.2
20260904121739 45 68 2.0 4.0 0.00 0.01 0.01 90 1016.1
20260904121229 45 68 1.0 4.0 0.00 0.01 0.01 91 1016.0
20260904120720 44 68 2.0 4.0 0.00 0.01 0.01 92 1016.0
20260904120209 44 68 2.0 4.0 0.00 0.01 0.01 93 1015.9
20260904115148 43 68 2.0 4.0 0.00 0.01 0.01 95 1015.8
20260904114638 43 68 2.0 4.0 0.00 0.01 0.01 95 1015.8
20260904114128 42 90 2.0 4.0 0.00 0.01 0.01 96 1015.7
20260904113618 42 90 2.0 6.0 0.00 0.01 0.01 96 1015.7
20260904113108 41 90 2.0 6.0 0.00 0.01 0.01 97 1015.5
20260904112557 41 45 2.0 4.0 0.00 0.01 0.01 97 1015.7
20260904112048 40 90 2.0 4.0 0.00 0.01 0.01 97 1015.5
20260904111538 40 45 1.0 4.0 0.00 0.01 0.01 97 1015.9
20260904111027 40 45 2.0 4.0 0.00 0.01 0.01 97 1015.6
20260904110517 40 68 2.0 4.0 0.00 0.01 0.01 97 1015.6
20260904110013 39 68 2.0 4.0 0.00 0.01 0.01 97 1015.7
20260904105457 39 68 2.0 4.0 0.00 0.01 0.01 97 1015.6
20260904104946 39 45 2.0 4.0 0.00 0.01 0.01 97 1015.5
20260904104437 39 68 2.0 4.0 0.00 0.01 0.01 97 1015.5
20260904103927 39 68 2.0 2.0 0.00 0.01 0.01 97 1015.5
20260904103417 39 45 1.0 2.0 0.00 0.01 0.01 97 1015.5
20260904102906 39 90 2.0 2.0 0.00 0.01 0.01 97 1015.1
20260904102358 38 68 2.0 2.0 0.00 0.01 0.01 97 1015.2
20260904101846 38 90 1.0 2.0 0.00 0.01 0.01 97 1015.2
20260904101336 38 68 1.0 2.0 0.01 0.01 0.01 97 1015.3
20260904100826 38 45 0.0 2.0 0.01 0.01 0.01 97 1015.2
20260904095255 38 45 1.0 2.0 0.01 0.01 0.01 97 1015.2
20260904094747 38 45 0.0 2.0 0.01 0.01 0.01 97 1015.1
20260904094235 39 45 1.0 2.0 0.01 0.01 0.01 97 1015.0
20260904093725 39 68 0.0 2.0 0.01 0.01 0.01 97 1015.1
20260904093215 39 45 1.0 2.0 0.01 0.01 0.01 97 1015.0
20260904092706 39 68 1.0 2.0 0.01 0.01 0.01 97 1014.8
20260904092155 39 68 1.0 2.0 0.01 0.01 0.01 97 1014.7
20260904091649 39 45 0.0 2.0 0.00 0.00 0.00 96 1014.9
20260904091134 39 68 0.0 2.0 0.00 0.00 0.00 96 1014.7
20260904090115 39 68 0.0 2.0 0.00 0.00 0.00 96 1014.4
20260904085603 39 45 0.0 2.0 0.00 0.00 0.00 96 1014.5
20260904085055 39 0 0.0 2.0 0.00 0.00 0.00 96 1014.5
20260904084544 39 45 0.0 2.0 0.00 0.00 0.00 96 1014.4
20260904084034 39 68 0.0 0.0 0.00 0.00 0.00 96 1014.4
20260904083524 39 45 0.0 2.0 0.00 0.00 0.00 96 1014.5
20260904083015 39 45 0.0 2.0 0.00 0.00 0.00 96 1014.4
20260904082503 39 45 0.0 2.0 0.00 0.00 0.00 96 1014.2
20260904081953 39 68 0.0 2.0 0.00 0.00 0.00 96 1014.3
20260904080932 40 45 1.0 2.0 0.00 0.00 0.00 96 1014.3
20260904080423 40 68 0.0 2.0 0.00 0.00 0.00 96 1014.2
20260904075913 39 23 1.0 2.0 0.00 0.00 0.00 96 1014.2
20260904075402 40 45 0.0 2.0 0.00 0.00 0.00 96 1014.2
20260904074851 40 45 0.0 2.0 0.00 0.00 0.00 96 1014.0
20260904074343 40 68 1.0 2.0 0.00 0.00 0.00 96 1014.0
20260904073832 39 68 1.0 2.0 0.00 0.00 0.00 96 1014.0
20260904073322 40 45 0.0 2.0 0.00 0.00 0.00 96 1014.0
20260904072811 40 23 0.0 2.0 0.00 0.00 0.00 96 1013.9
20260904072301 40 23 0.0 2.0 0.00 0.00 0.00 96 1013.9
20260904071751 40 0 0.0 2.0 0.00 0.00 0.00 96 1013.9
20260904070731 40 68 1.0 2.0 0.00 0.00 0.00 96 1013.9
20260904070225 40 45 1.0 2.0 0.00 0.00 0.00 96 1014.0
20260904065200 40 45 0.0 2.0 0.00 0.00 0.00 95 1013.8
20260904064650 40 68 0.0 2.0 0.00 0.00 0.00 95 1013.9
20260904064140 40 45 0.0 2.0 0.00 0.00 0.00 95 1014.0
20260904063629 40 45 0.0 2.0 0.00 0.00 0.00 95 1013.9
20260904063119 40 45 0.0 2.0 0.00 0.00 0.00 95 1014.0
20260904062610 40 23 0.0 2.0 0.00 0.00 0.00 95 1013.9
20260904062059 40 68 0.0 2.0 0.00 0.00 0.00 95 1013.8
20260904061039 40 45 1.0 2.0 0.00 0.00 0.00 95 1013.9
20260904060530 40 68 0.0 0.0 0.00 0.00 0.00 95 1014.0
20260904060019 40 45 0.0 2.0 0.00 0.00 0.00 95 1014.2
20260904055509 41 68 0.0 2.0 0.00 0.00 0.00 95 1014.1
20260904054958 41 45 0.0 2.0 0.00 0.00 0.00 94 1014.0
20260904053938 41 90 1.0 2.0 0.00 0.00 0.00 94 1014.1
20260904053429 41 45 2.0 0.0 0.00 0.00 0.00 94 1014.3
20260904053210 41 45 2.0 0.0 0.00 0.00 0.00 94 1014.3
20260904052647 41 45 1.0 2.0 0.00 0.35 0.00 94 1014.2
20260904052135 41 23 1.0 2.0 0.00 0.35 0.00 94 1014.2
20260904051626 41 68 0.0 2.0 0.00 0.35 0.00 94 1014.4
20260904051117 42 68 1.0 2.0 0.00 0.35 0.00 94 1014.3
20260904050606 42 45 1.0 2.0 0.00 0.35 0.00 94 1014.3
20260904050055 42 68 2.0 2.0 0.00 0.35 0.00 94 1014.2
20260904045035 42 45 1.0 2.0 0.00 0.35 0.00 94 1014.2
20260904044535 42 45 0.0 2.0 0.00 0.35 0.00 94 1014.4
20260904044014 42 68 0.0 2.0 0.00 0.35 0.00 94 1014.2
20260904043504 42 45 1.0 2.0 0.00 0.35 0.00 94 1014.2
20260904042954 42 45 0.0 2.0 0.00 0.35 0.00 94 1014.2
20260904042445 42 45 1.0 2.0 0.00 0.35 0.00 94 1014.3
20260904041934 42 68 0.0 2.0 0.00 0.35 0.00 93 1014.2
20260904041424 43 45 0.0 2.0 0.00 0.35 0.00 94 1014.0
20260904035854 43 68 1.0 2.0 0.00 0.35 0.00 94 1014.0
20260904035343 43 45 0.0 2.0 0.00 0.35 0.00 94 1013.9
20260904034837 43 68 0.0 2.0 0.00 0.35 0.00 94 1013.8
20260904034324 43 45 0.0 2.0 0.00 0.35 0.00 94 1013.9
20260904033814 43 45 0.0 2.0 0.00 0.35 0.00 94 1014.0
20260904033303 43 45 0.0 2.0 0.00 0.35 0.00 94 1014.0
20260904032753 43 45 0.0 2.0 0.00 0.35 0.00 94 1013.7
20260904032243 43 68 1.0 2.0 0.00 0.35 0.00 94 1013.7
20260904031222 43 68 1.0 2.0 0.00 0.35 0.00 94 1013.8
20260904030714 44 45 0.0 2.0 0.00 0.35 0.00 95 1013.6
20260904030202 44 45 1.0 2.0 0.00 0.35 0.00 95 1013.6
20260904025652 44 90 1.0 2.0 0.00 0.35 0.44 95 1013.7
20260904025141 44 0 0.0 2.0 0.00 0.35 0.44 95 1013.7
20260904024126 44 0 0.0 2.0 0.00 0.35 0.44 95 1013.7
20260904023101 44 45 0.0 2.0 0.00 0.35 0.44 95 1013.7
20260904022551 44 0 0.0 2.0 0.00 0.35 0.44 95 1013.7
20260904022041 44 45 0.0 2.0 0.00 0.35 0.44 95 1013.6
20260904021530 45 45 0.0 2.0 0.00 0.35 0.44 95 1013.6
20260904021021 45 45 0.0 2.0 0.00 0.35 0.44 94 1013.8
20260904020510 45 23 0.0 2.0 0.00 0.35 0.44 94 1013.5
20260904020000 45 45 0.0 0.0 0.00 0.35 0.44 94 1013.6
20260904015450 45 45 0.0 0.0 0.00 0.35 0.44 94 1013.6
20260904014429 46 45 0.0 0.0 0.00 0.35 0.44 94 1013.4
20260904013919 46 45 0.0 0.0 0.00 0.35 0.44 93 1013.3
20260904013410 46 45 0.0 0.0 0.00 0.35 0.44 93 1013.5
20260904012900 46 45 0.0 0.0 0.00 0.35 0.44 93 1013.4
20260904011838 46 45 0.0 2.0 0.00 0.35 0.44 92 1013.2
20260904011334 46 45 0.0 2.0 0.00 0.35 0.44 92 1013.3
20260904010818 47 45 0.0 2.0 0.00 0.35 0.44 92 1013.1
20260904005759 47 45 0.0 2.0 0.00 0.35 0.44 91 1013.2
20260904005248 47 45 0.0 2.0 0.00 0.35 0.44 90 1012.9
20260904004738 47 68 0.0 2.0 0.00 0.35 0.44 90 1012.9
20260904004228 47 68 1.0 2.0 0.00 0.35 0.44 90 1013.0
20260904003208 48 0 0.0 2.0 0.00 0.35 0.44 89 1012.9
20260904002657 48 23 0.0 2.0 0.00 0.35 0.44 89 1012.7
20260904002147 48 23 0.0 2.0 0.00 0.35 0.44 89 1012.6
20260904001638 48 45 0.0 2.0 0.00 0.35 0.44 89 1012.7
20260904000107 48 158 0.0 2.0 0.00 0.35 0.44 88 1012.5
20260903235558 48 113 1.0 2.0 0.00 0.35 0.44 88 1012.4
20260903235047 49 135 0.0 2.0 0.00 0.35 0.44 88 1012.4
20260903234028 49 90 0.0 2.0 0.00 0.35 0.44 87 1012.2
20260903233516 49 135 0.0 2.0 0.00 0.35 0.44 87 1012.2
20260903233011 49 113 0.0 2.0 0.00 0.35 0.44 87 1012.3
20260903232456 49 45 0.0 2.0 0.00 0.35 0.44 87 1012.2
20260903231945 50 113 0.0 2.0 0.00 0.35 0.44 86 1012.1
20260903230926 50 113 0.0 2.0 0.00 0.35 0.44 86 1011.8
20260903230415 50 135 1.0 2.0 0.00 0.35 0.44 86 1012.0
20260903225905 50 180 1.0 4.0 0.00 0.35 0.44 86 1011.9
20260903225355 50 158 1.0 4.0 0.00 0.35 0.44 87 1011.8
20260903224845 50 180 2.0 4.0 0.00 0.35 0.44 88 1011.8
20260903224334 50 113 2.0 2.0 0.00 0.35 0.44 89 1011.9
20260903223824 51 135 1.0 2.0 0.00 0.35 0.44 89 1011.8
20260903223314 51 68 1.0 4.0 0.00 0.35 0.44 90 1011.7
20260903222805 51 225 2.0 6.0 0.00 0.35 0.44 90 1011.7
20260903222254 50 203 1.0 6.0 0.00 0.35 0.44 91 1011.3
20260903221233 51 135 0.0 4.0 0.00 0.35 0.44 91 1011.1
20260903220725 51 135 2.0 4.0 0.00 0.35 0.44 92 1011.1
20260903220214 51 90 1.0 2.0 0.00 0.35 0.44 92 1011.1
20260903215704 51 90 2.0 7.0 0.00 0.35 0.44 92 1010.8
20260903215153 51 135 1.0 7.0 0.00 0.35 0.44 92 1010.8
20260903214643 51 225 2.0 4.0 0.00 0.35 0.44 92 1010.7
20260903213623 51 23 2.0 4.0 0.00 0.35 0.44 92 1010.5
20260903213113 51 180 2.0 4.0 0.00 0.35 0.44 92 1010.5
20260903212602 51 0 1.0 4.0 0.01 0.35 0.44 92 1010.5
20260903212052 52 113 2.0 6.0 0.04 0.35 0.44 92 1010.3
20260903211543 52 90 2.0 6.0 0.04 0.35 0.44 92 1010.2
20260903210013 52 203 1.0 4.0 0.04 0.35 0.44 92 1009.9
20260903204952 52 135 2.0 4.0 0.04 0.35 0.44 92 1009.8
20260903204441 52 248 2.0 4.0 0.04 0.35 0.44 92 1009.9
20260903203931 53 203 2.0 4.0 0.04 0.35 0.44 92 1009.8
20260903203421 53 338 0.0 2.0 0.04 0.35 0.44 92 1009.7
20260903202404 52 338 1.0 6.0 0.08 0.34 0.43 92 1009.1
20260903201851 53 180 2.0 6.0 0.15 0.32 0.40 92 1009.6
20260903201341 54 68 2.0 6.0 0.26 0.32 0.40 92 1009.6
20260903200831 54 158 1.0 7.0 0.27 0.32 0.40 92 1009.4
20260903194750 53 158 2.0 4.0 0.32 0.32 0.40 93 1009.2
20260903194240 53 135 1.0 4.0 0.32 0.32 0.40 92 1008.9
20260903193729 53 23 1.0 4.0 0.32 0.32 0.40 92 1008.9
20260903193219 52 203 1.0 4.0 0.32 0.32 0.40 92 1008.6
20260903191649 53 158 1.0 6.0 0.11 0.11 0.19 89 1008.5
20260903190628 54 225 2.0 7.0 0.04 0.04 0.12 86 1008.5